Location: Unspecified
(0.0000°N, 0.0000°E)
Time: 17:00:31
(UTC+00:00)

deb Kosmos-1275 - Visible Passes

Search period start: 14 January 2026 00:00
Search period end: 24 January 2026 00:00
Orbit: 933 x 1058 km, 83.0° (Epoch: 14 January)

Date Brightness Start Highest point End Pass type
(mag) Time Alt. Az. Time Alt. Az. Time Alt. Az.
14 Jan ? 19:56:59 35° ESE 19:56:59 35° ESE 20:01:26 10° SSE visible
14 Jan ? 21:41:59 16° WSW 21:41:59 16° WSW 21:44:54 10° SW visible
15 Jan ? 20:26:53 83° SW 20:26:53 83° SW 20:33:22 10° S visible
16 Jan ? 19:11:29 19° ENE 19:12:40 20° E 19:17:20 10° SE visible
16 Jan ? 20:56:26 30° WNW 20:58:07 35° W 21:04:02 10° SSW visible
17 Jan ? 19:40:25 25° NNE 19:44:02 50° E 19:50:26 10° SSE visible
17 Jan ? 21:26:37 10° WNW 21:29:33 13° W 21:32:33 10° WSW visible
18 Jan ? 20:08:58 10° N 20:15:25 68° W 20:22:03 10° S visible
19 Jan ? 18:56:08 10° NE 19:01:23 26° E 19:06:41 10° SE visible
19 Jan ? 20:41:25 10° NW 20:46:50 28° W 20:52:23 10° SSW visible
20 Jan ? 19:26:18 10° N 19:32:45 63° E 19:39:20 10° SSE visible
20 Jan ? 21:18:03 10° W 21:18:18 10° W 21:18:33 10° W visible
21 Jan ? 19:57:47 10° NNW 20:04:09 55° W 20:10:39 10° S visible
22 Jan ? 18:44:22 10° NNE 18:50:06 32° E 18:55:53 10° SSE visible
22 Jan ? 20:30:38 10° NW 20:35:35 23° W 20:40:35 10° SW visible
23 Jan ? 19:14:54 10° N 19:21:28 78° E 19:28:09 10° S visible
